G1 CYXU-CYXU

Flight info

Callsign G1
Flight time N/A
Altitude 2000
Route CYXU/15 VFR CIRCUITS
Aircraft RAFL

Departure

Time 2026-04-28 02:04
Airport London International Airport (CYXU)

Arrival

Time N/A
Airport London International Airport (CYXU)
Time Latitude Longitude Altitude Speed Heading
2026-04-28 02:03 43.02177 -81.13632 1413 ft 239 kts 133°
2026-04-28 02:04 43.01577 -81.11791 1502 ft 210 kts 89°
2026-04-28 02:04 43.02038 -81.09980 1764 ft 200 kts 44°
2026-04-28 02:04 43.03253 -81.09779 1998 ft 200 kts 324°
2026-04-28 02:04 43.04352 -81.11050 2294 ft 216 kts 312°
2026-04-28 02:05 43.05576 -81.12895 2487 ft 333 kts 311°
2026-04-28 02:05 43.07287 -81.15429 2626 ft 325 kts 310°
2026-04-28 02:05 43.06550 -81.16928 1787 ft 221 kts 211°
2026-04-28 02:05 43.05336 -81.17163 1287 ft 161 kts 155°
2026-04-28 02:06 43.04453 -81.16250 992 ft 195 kts 140°
2026-04-28 02:06 43.03445 -81.15078 993 ft 240 kts 141°
2026-04-28 02:06 43.01481 -81.12859 1336 ft 424 kts 120°
2026-04-28 02:06 43.03355 -81.12117 1810 ft 445 kts 322°
2026-04-28 02:07 43.05471 -81.14252 2025 ft 296 kts 323°
2026-04-28 02:07 43.06688 -81.16283 1837 ft 276 kts 251°
2026-04-28 02:07 43.05344 -81.17172 1389 ft 225 kts 148°
2026-04-28 02:07 43.04264 -81.16021 932 ft 200 kts 139°
2026-04-28 02:08 43.02505 -81.13977 1107 ft 427 kts 140°
2026-04-28 02:08 43.02512 -81.11388 1610 ft 287 kts 337°
2026-04-28 02:08 43.04185 -81.12960 1863 ft 302 kts 322°
2026-04-28 02:08 43.06198 -81.15112 1918 ft 387 kts 320°
2026-04-28 02:09 43.05875 -81.17263 1404 ft 250 kts 194°
2026-04-28 02:09 43.04575 -81.16407 1015 ft 183 kts 140°
2026-04-28 02:09 43.03776 -81.15449 905 ft 153 kts 137°
2026-04-28 02:09 43.02556 -81.14026 1156 ft 276 kts 141°
2026-04-28 02:10 43.03465 -81.13363 1615 ft 396 kts 329°
2026-04-28 02:10 43.05658 -81.15195 1962 ft 355 kts 306°
2026-04-28 02:10 43.04813 -81.16362 1136 ft 192 kts 161°
2026-04-28 02:10 43.03868 -81.15570 905 ft 147 kts 141°
2026-04-28 02:11 43.03085 -81.14651 968 ft 147 kts 139°
2026-04-28 02:11 43.02272 -81.13662 1113 ft 168 kts 137°
2026-04-28 02:11 43.01894 -81.12155 1191 ft 178 kts 68°
2026-04-28 02:11 43.02716 -81.11212 1224 ft 149 kts 359°
2026-04-28 02:12 43.03637 -81.11560 1398 ft 132 kts 338°
2026-04-28 02:12 43.04421 -81.12041 1504 ft 119 kts 331°
2026-04-28 02:12 43.05411 -81.12436 1514 ft 175 kts
2026-04-28 02:12 43.06347 -81.11489 1451 ft 178 kts 75°
2026-04-28 02:13 43.05955 -81.10028 1294 ft 175 kts 155°
2026-04-28 02:13 43.04861 -81.10313 1321 ft 175 kts 237°
2026-04-28 02:13 43.04940 -81.11809 1372 ft 173 kts 317°
2026-04-28 02:13 43.05864 -81.12799 1404 ft 164 kts 324°
2026-04-28 02:14 43.06881 -81.12795 1325 ft 164 kts 69°
2026-04-28 02:14 43.06467 -81.11662 1218 ft 182 kts 162°